Location: Mason
(37.5237°N, 89.2543°W)
Time: 08:02:54
(UTC+00:00)

Cosmos 1092 Rocket - Pass Details

Date: 24 January 2021
Orbit: 954 x 994 km, 83.0° (Epoch: 08 March)

Event Time Altitude Azimuth Distance (km) Brightness Sun altitude
Rises 23:43:19 0° 165° (SSE) 3,652 7.1 -6.5°
Reaches altitude 10° 23:45:57 10° 159° (SSE) 2,703 6.3 -7.0°
Maximum altitude 23:51:43 43° 90° (E) 1,327 4.3 -8.1°
Drops below altitude 10° 23:57:28 10° 21° (NNE) 2,697 6.0 -9.2°
Sets 00:00:05 0° 15° (NNE) 3,643 6.7 -9.7°
